Content
SEND FEEDBACK

Daily
Averages
Monthly
Summary
Switzerland

ZÜRICH, SWITZERLAND


Home > Europe > Switzerland
Elevation: 1867 feet     Latitude: 47 23N     Longitude: 008 34E

WEATHER
 
SELECT A DAY
Number of Records: 287,396;   Date Range: 7/1/96 - 7/29/14
 
SHARE

PRINT THIS DATA

[ ← Previous Day ]
WEATHER ALMANAC - FEBRUARY 17, 2013
[ Next Day → ]
[ °C ]   °F
Weather ElementAverageHighLow
Temperature34.2 °F37.4 °F (1:50 pm)26.6 °F (12:20 am)
Dewpoint28.4 °F30.2 °F (3:20 am)26 °F (3:00 pm)
Humidity77.8 %100 % (12:20 am)54 % (3:00 pm)
Barometer30.14 in30.27 in (1:00 am)30.06 in (4:50 pm)
Wind Speed5.8 mph13.8 mph (11:50 pm)
Weather ElementAverage
Visibility4.8 mi
Wind DirectionSE (138.7 °)

Weather ElementTotal
Precipitation---
Heating Degree Days33 (Base 65)
Averaged from 60 records on February 17, 2013
WEATHER CONDITIONS BREAKOUT
WIND DIRECTION BREAKOUT
WEATHER BY HOUR - FEBRUARY 17, 2013
[ °C ]   °F
Local TimeTemperatureDewpointHumidityBarometerVisibilityWind DirectionWind SpeedGust SpeedPrecipitationEventsConditions
12:20 AM26.6 °F26.6 °F100 %30.18 in0.7 miVariable2.3 mphFogPatches of Fog
12:50 AM28.4 °F26.6 °F93 %30.18 in0.5 miNW (320°)3.5 mphFogPatches of Fog
1:00 AM28.0 °F27.0 °F93 %30.27 in0.0 miNNW (330°)3.5 mphFogPatches of Fog
1:50 AM28.4 °F26.6 °F93 %30.18 in1.6 miWSW (250°)3.5 mphFogPatches of Fog
2:00 AM29.0 °F27.0 °F89 %30.26 inWNW (300°)4.6 mph
2:20 AM28.4 °F26.6 °F93 %30.18 in1.6 miWNW (300°)3.5 mphOvercast
2:50 AM30.2 °F28.4 °F93 %30.15 in1.9 miNNW (330°)3.5 mphMostly Cloudy
3:00 AM32.0 °F29.0 °F86 %30.24 inNNW (330°)5.8 mph
3:20 AM30.2 °F30.2 °F100 %30.15 in2.5 miNorth (350°)5.8 mphMostly Cloudy
3:50 AM30.2 °F30.2 °F100 %30.15 in2.5 miNorth (10°)4.6 mphMostly Cloudy
4:20 AM30.2 °F30.2 °F100 %30.15 in2.5 miNorth (10°)3.5 mphMostly Cloudy
4:50 AM32.0 °F30.2 °F93 %30.15 in2.5 miNNW (340°)3.5 mphOvercast
5:00 AM32.0 °F30.0 °F88 %30.22 inNorth (10°)5.8 mph
5:20 AM32.0 °F30.2 °F93 %30.15 in3.1 miNNE (20°)3.5 mphOvercast
5:50 AM32.0 °F30.2 °F93 %30.15 in3.1 miNNE (20°)3.5 mphOvercast
6:00 AM32.0 °F30.0 °F88 %30.22 inNE (50°)4.6 mph
6:20 AM32.0 °F30.2 °F93 %30.15 in3.1 miNorth (360°)3.5 mphOvercast
6:50 AM32.0 °F30.2 °F93 %30.15 in3.1 miNorth (10°)4.6 mphOvercast
7:00 AM32.0 °F30.0 °F87 %30.22 inNNE (20°)6.9 mph
7:20 AM32.0 °F30.2 °F93 %30.15 in3.1 miNorth (360°)4.6 mphOvercast
7:50 AM32.0 °F30.2 °F93 %30.15 in3.1 miNorth (10°)3.5 mphOvercast
8:00 AM33.0 °F30.0 °F83 %30.22 inNorth (10°)6.9 mph
10:50 AM35.6 °F28.4 °F75 %30.15 in5.6 miNorth (350°)5.8 mphMostly Cloudy
11:00 AM35.0 °F28.0 °F68 %30.21 inNNE (20°)6.9 mph
11:20 AM35.6 °F28.4 °F75 %30.15 in6.2 miNorth (360°)5.8 mphMostly Cloudy
11:50 AM35.6 °F28.4 °F75 %30.15 in6.2 miNorth (350°)4.6 mphOvercast
12:00 PM35.0 °F29.0 °F69 %30.21 inNorth (10°)8.1 mph
12:20 PM35.6 °F28.4 °F75 %30.12 in6.2 miNorth (350°)4.6 mphOvercast
12:50 PM35.6 °F28.4 °F75 %30.12 in6.2 miNorth (10°)4.6 mphOvercast
1:00 PM36.0 °F28.0 °F64 %30.19 in7.0 miNNE (20°)5.8 mphOvercast
1:20 PM35.6 °F28.4 °F75 %30.12 in6.2 miNorth (350°)4.6 mphOvercast
1:50 PM37.4 °F28.4 °F70 %30.12 in6.2 miNorth (360°)3.5 mphOvercast
2:00 PM36.0 °F27.0 °F60 %30.17 inNNE (30°)6.9 mph
2:20 PM37.4 °F26.6 °F65 %30.09 in6.2 miNNE (20°)5.8 mphMostly Cloudy
2:50 PM37.4 °F26.6 °F65 %30.09 in6.2 miNNE (30°)5.8 mphMostly Cloudy
3:00 PM37.0 °F26.0 °F54 %30.15 inNE (50°)10.4 mph
3:20 PM37.4 °F26.6 °F65 %30.09 in6.2 miNNE (30°)8.1 mphMostly Cloudy
3:50 PM37.4 °F28.4 °F70 %30.09 in6.2 miNNE (20°)8.1 mphMostly Cloudy
4:20 PM37.4 °F28.4 °F70 %30.09 in6.2 miNorth (360°)6.9 mphMostly Cloudy
4:50 PM37.4 °F28.4 °F70 %30.06 in6.2 miNorth (350°)6.9 mphMostly Cloudy
5:00 PM37.0 °F28.0 °F61 %30.13 inNorth (10°)6.9 mph
5:20 PM37.4 °F28.4 °F70 %30.06 in6.2 miNorth (360°)5.8 mphMostly Cloudy
5:50 PM37.4 °F28.4 °F70 %30.06 in6.2 miNNE (20°)3.5 mphMostly Cloudy
6:00 PM36.0 °F28.0 °F64 %30.14 inNE (40°)5.8 mph
6:20 PM37.4 °F28.4 °F70 %30.06 in6.2 miNorth (10°)3.5 mphMostly Cloudy
6:50 PM35.6 °F28.4 °F75 %30.09 in6.2 miNorth (360°)4.6 mphMostly Cloudy
7:00 PM37.0 °F28.0 °F60 %30.14 in9.0 miNNE (20°)6.9 mphMostly Cloudy
7:20 PM37.4 °F28.4 °F70 %30.09 in6.2 miNorth (360°)5.8 mphMostly Cloudy
7:50 PM37.4 °F28.4 °F70 %30.09 in6.2 miNNE (20°)5.8 mphMostly Cloudy
8:00 PM36.0 °F28.0 °F62 %30.14 inNE (40°)8.1 mph
8:20 PM35.6 °F28.4 °F75 %30.09 in6.2 miNNE (20°)5.8 mphMostly Cloudy
8:50 PM35.6 °F28.4 °F75 %30.09 in6.2 miNNE (30°)6.9 mphMostly Cloudy
9:00 PM36.0 °F28.0 °F64 %30.14 inNE (40°)6.9 mph
9:20 PM35.6 °F28.4 °F75 %30.06 in6.2 miNNE (20°)4.6 mphMostly Cloudy
9:50 PM35.6 °F28.4 °F75 %30.06 in6.2 miNNE (20°)5.8 mphMostly Cloudy
10:20 PM35.6 °F28.4 °F75 %30.06 in6.2 miNNE (30°)6.9 mphMostly Cloudy
10:50 PM35.6 °F28.4 °F75 %30.06 in6.2 miNNE (20°)8.1 mphMostly Cloudy
11:00 PM35.0 °F27.0 °F64 %30.14 inNE (40°)11.5 mph
11:20 PM35.6 °F26.6 °F70 %30.06 in6.2 miNNE (20°)11.5 mphMostly Cloudy
11:50 PM35.6 °F26.6 °F70 %30.06 in6.2 miNNE (30°)13.8 mphMostly Cloudy
Hourly data recorded from LSMD, located miles away from Zürich, Switzerland







STORIES FROM OUR PARTNERS